Regional Weather Roundup
Issued by NWS

Home | Current Version | Previous Version | Graphics & Text | Print | Product List | Glossary On
Versions: 1 2 3 4 5 6 7 8 9 10 11 12 13 14 15 16 17 18 19 20 21 22 23 24 25 26 27 28 29 30 31 32 33 34 35 36 37 38 39 40 41 42 43 44 45 46 47 48 49 50
000
ASUS45 KABQ 200301
RWRNM
NEW MEXICO REGIONAL WEATHER ROUNDUP
NATIONAL WEATHER SERVICE ALBUQUERQUE NM
900 PM MDT THU OCT 19 2017

NOTE: "FAIR" MEANS FEW OR NO CLOUDS BELOW 12,000 FEET AGL WITH NO
       SIGNIFICANT WEATHER OR OBSTRUCTIONS TO VISION.

      THIS PRODUCT IS RELEASED AS TWO VERSIONS.  ONE VERSION NEAR
      THE TOP OF THE HOUR CONTAINING PRELIMINARY DATA FROM ALBUQUERQUE
      AND OTHER STATIONS.  A FINAL VERSION WITH ADDITIONAL DATA IS
      ISSUED ABOUT 10 MINUTES AFTER THE HOUR.

NMZ501-503-504-510>518-200400-
NORTHWEST PLATEAU/NORTHCENTRAL MOUNTAINS

CITY           SKY/WX    TMP DP  RH WIND       PRES   REMARKS
FARMINGTON     FAIR      53  34  48 NE5       30.01R
LOS ALAMOS     FAIR      58  36  43 S8        30.13F
SANTA FE       FAIR      57  41  55 SW12      30.10S
TAOS           MOCLDY    53  31  42 N3        30.14R
ANGEL FIRE     FAIR      43  32  66 S6        30.18S

$$
NMZ402-403-502-505>509-200400-
WESTCENTRAL MOUNTAINS/SOUTHWEST MOUNTAINS

CITY           SKY/WX    TMP DP  RH WIND       PRES   REMARKS
GALLUP         FAIR      54  39  57 CALM      30.10S
GRANTS         FAIR      49  45  87 SE3       30.16R
SILVER CITY    MOCLDY    61  43  52 E9        30.08R

$$
NMZ407-409-411-412-200400-
SOUTHERN DESERTS

CITY           SKY/WX    TMP DP  RH WIND       PRES   REMARKS
DEMING         LGT RAIN  64  53  67 NE21G29   30.04R
LAS CRUCES     TSTM      59  53  82 N13       30.06F
ALAMOGORDO     LGT RAIN  57  54  88 NE9       30.18R
T OR C         FAIR      57  54  89 E5        30.09F

$$
NMZ519>523-200400-
CENTRAL VALLEYS/CENTRAL HIGHLANDS

CITY           SKY/WX    TMP DP  RH WIND       PRES   REMARKS
ALBUQUERQUE    LGT RAIN  58  51  78 SE8       30.12R
MORIARTY ARPT  MOCLDY    59  44  57 W21       30.13S
CLINES CORNERS CLOUDY    52  44  74 W17G25    30.17R
BELEN          CLOUDY    55  51  85 E7        30.12F
SOCORRO        CLOUDY    59  48  66 E9        30.09S

$$
NMZ524>526-539-540-200400-
SOUTHCENTRAL MOUNTAINS

CITY           SKY/WX    TMP DP  RH WIND       PRES   REMARKS
RUIDOSO        CLOUDY    48  45  87 SW13      30.21S

$$
NMZ527>531-200400-
NORTHEAST HIGHLANDS/NORTHEAST PLAINS

CITY           SKY/WX    TMP DP  RH WIND       PRES   REMARKS
LAS VEGAS      CLOUDY    53  42  66 S14       30.11S
RATON          FAIR      54  37  52 CALM      30.06S
CLAYTON        MOCLDY    62  43  49 S13G22    30.01S

$$
NMZ532>537-200400-
EASTCENTRAL PLAINS

CITY           SKY/WX    TMP DP  RH WIND       PRES   REMARKS
SANTA ROSA     FAIR      60  48  64 S13       30.05R
TUCUMCARI      FAIR      63  50  62 S12       30.00R
CANNON AFB     MOCLDY    56  56 100 S6        30.07F
CLOVIS AIRPORT FAIR      55  54  96 S7        30.08S

$$
NMZ028-029-538-200400-
SOUTHEAST PLAINS

CITY           SKY/WX    TMP DP  RH WIND       PRES   REMARKS
ROSWELL        FAIR      66  49  54 SW12      30.03F
ARTESIA        DRIZZLE   63  57  82 W17       30.08S
CARLSBAD       FAIR      61  59  93 SW5       30.02R


$$



USA.gov is the U.S. government's official web portal to all federal, state and local government web resources and services.